Weather History for Miami, FL

Change the Weather History Date:

Sunday, August 25, 2013

  Actual Average Record
Temperature  
Mean Temperature 82 °F 84 °F  
Max Temperature 89 °F 91 °F 94 °F (1958)
Min Temperature 75 °F 77 °F 71 °F (1910)
Degree Days  
Heating Degree Days 0 0  
Month to date heating degree days 0 0  
Since 1 June heating degree days 0 0  
Since 1 July heating degree days 0 0  
Cooling Degree Days 17 19  
Month to date cooling degree days 490 483  
Year to date cooling degree days 3034 2963  
Since 1 June cooling degree days 1589 1607  
Growing Degree Days 34 (Base 50)    
Moisture  
Dew Point 74 °F    
Average Humidity 72    
Maximum Humidity 85    
Minimum Humidity 59    
Precipitation  
Precipitation 0.44 in 0.30 in 6.11 in (1916)
Month to date precipitation 3.54 6.99  
Year to date precipitation 41.79 38.51  
Snow  
Snow 0.00 in - - ()
Month to date snowfall 0.0  
Since 1 June snowfall 0.0  
Since 1 July snowfall 0.0  
Snow Depth 0.00 in    
Sea Level Pressure  
Sea Level Pressure 30.09 in    
Wind  
Wind Speed 7 mph (ENE)    
Max Wind Speed 18 mph    
Max Gust Speed 25 mph    
Visibility 10 miles    
Events Rain , Thunderstorm    
T = Trace of Precipitation, MM = Missing Value Source: NWS Daily Summary

Daily Weather History Graph

Daily Weather History Graph

Search for Another Location

Airport:

Trip Planner

Search our weather history database for the weather conditions in past years. The results will help you decide how hot, cold, wet, or windy it might be!

Date:

Astronomy

Aug. 25, 2013 Rise Set
Actual Time 6:58 AM EDT 7:47 PM EDT
Civil Twilight 6:35 AM EDT 8:10 PM EDT
Nautical Twilight 6:07 AM EDT 8:38 PM EDT
Astronomical Twilight 5:38 AM EDT 9:06 PM EDT
Moon 10:54 PM EDT (8/25) 11:23 AM EDT (8/25)
Length of Visible Light 13h 35m
Length of Day
12h 48m
Waning Gibbous, 76% of the Moon is Illuminated
Aug 25
Waning Gibbous
Aug 28
Last Quarter
Sep 5
New
Sep 12
First Quarter
Sep 19
Full

Hourly Weather History & Observations

Time (EDT) Temp. Heat Index Dew Point Humidity Pressure Visibility Wind Dir Wind Speed Gust Speed Precip Events Conditions
12:53 AM 82.9 °F 89.4 °F 73.9 °F 74% 30.07 in 10.0 mi SE 4.6 mph - N/A   Overcast
1:53 AM 82.9 °F 90.2 °F 75.0 °F 77% 30.06 in 10.0 mi ESE 5.8 mph - N/A   Overcast
2:53 AM 82.0 °F 88.6 °F 75.0 °F 79% 30.04 in 10.0 mi Calm Calm - N/A   Mostly Cloudy
3:53 AM 82.9 °F 90.2 °F 75.0 °F 77% 30.03 in 10.0 mi SE 5.8 mph - N/A   Mostly Cloudy
4:53 AM 82.9 °F 90.2 °F 75.0 °F 77% 30.05 in 10.0 mi SE 3.5 mph - N/A   Mostly Cloudy
5:53 AM 82.0 °F 88.6 °F 75.0 °F 79% 30.07 in 10.0 mi Calm Calm - N/A   Mostly Cloudy
6:53 AM 81.0 °F 86.7 °F 75.0 °F 82% 30.09 in 10.0 mi NW 4.6 mph - N/A   Mostly Cloudy
7:53 AM 80.1 °F 85.4 °F 75.9 °F 87% 30.10 in 10.0 mi NNW 4.6 mph - N/A   Mostly Cloudy
8:53 AM 84.9 °F 95.3 °F 77.0 °F 77% 30.11 in 10.0 mi Variable 5.8 mph - N/A   Mostly Cloudy
9:53 AM 84.0 °F 92.6 °F 75.9 °F 76% 30.13 in 10.0 mi North 5.8 mph - N/A   Mostly Cloudy
10:53 AM 84.0 °F 91.2 °F 73.9 °F 72% 30.15 in 10.0 mi NNE 10.4 mph - N/A   Mostly Cloudy
11:53 AM 80.1 °F 84.2 °F 73.0 °F 79% 30.15 in 10.0 mi SE 4.6 mph - 0.00 in   Overcast
12:53 PM 84.0 °F 91.9 °F 75.0 °F 74% 30.13 in 10.0 mi East 10.4 mph - N/A   Overcast
1:53 PM 87.1 °F 93.6 °F 72.0 °F 61% 30.12 in 10.0 mi East 12.7 mph - N/A   Mostly Cloudy
2:53 PM 86.0 °F 92.2 °F 72.0 °F 63% 30.09 in 10.0 mi ENE 8.1 mph - N/A   Mostly Cloudy
3:53 PM 88.0 °F 95.6 °F 73.0 °F 61% 30.06 in 10.0 mi East 11.5 mph - N/A   Mostly Cloudy
4:53 PM 86.0 °F 93.0 °F 73.0 °F 65% 30.06 in 10.0 mi East 11.5 mph - N/A   Mostly Cloudy
5:53 PM 84.9 °F 90.1 °F 71.1 °F 63% 30.07 in 10.0 mi East 10.4 mph - N/A   Mostly Cloudy
6:53 PM 82.9 °F 89.4 °F 73.9 °F 74% 30.07 in 10.0 mi ENE 8.1 mph - N/A   Mostly Cloudy
7:53 PM 82.9 °F 89.4 °F 73.9 °F 74% 30.08 in 10.0 mi ENE 5.8 mph - N/A   Scattered Clouds
8:53 PM 82.9 °F 89.4 °F 73.9 °F 74% 30.10 in 10.0 mi ENE 6.9 mph - N/A   Mostly Cloudy
9:28 PM 82.4 °F 89.5 °F 75.2 °F 79% 30.11 in 10.0 mi NE 6.9 mph - N/A   Overcast
9:53 PM 82.9 °F 89.4 °F 73.9 °F 74% 30.12 in 10.0 mi ENE 8.1 mph - N/A   Overcast
10:50 PM 82.4 °F 88.2 °F 73.4 °F 74% 30.12 in 10.0 mi NNE 4.6 mph - N/A   Overcast
10:53 PM 82.9 °F 89.4 °F 73.9 °F 74% 30.12 in 10.0 mi NE 5.8 mph - N/A   Overcast
11:09 PM 80.6 °F 85.4 °F 73.4 °F 79% 30.12 in 6.0 mi NNE 5.8 mph - 0.01 in Rain , Thunderstorm Thunderstorms and Rain
11:53 PM 75.0 °F - 71.1 °F 87% 30.13 in 7.0 mi East 5.8 mph - 0.44 in Rain , Thunderstorm Light Thunderstorms and Rain